DELTA 1 DEB, 42659

Orbit data source: Space-Track

DELTA 1 DEB, 42659 is space debris in SSO originally from a launch on Thu, 12 Jun 1975 UTC launched from the Air Force Western Test Range (AFWTR). Debris objects in space refer to the collection of defunct objects orbiting the Earth. Examples of debris include non-operational satellites, rocket bodies, and fragments generated from explosions, collisions, or faulty payload assembly.

Loading next visibility...
Identifier
42659, 1975-052MU
Orbit
SSO
Country
Flag of USUS
Related business
Manufacturer
Unknown
Mission
Spacecraft
Bus & Motor
Unknown
Mass
Unknown
Launch date (UTC)
1975-06-12 (50 years ago)
Launch vehicle
Unknown
Launch site
Air Force Western Test Range (AFWTR)
Object type
Payload
Rocket body
Debris
Shape & HBR
Unknown
Radar Cross Section
Small (<0.1 m²)

Expand to show TLE details & history
Last TLE update: 16 hours ago

TLE from 16 hours ago
0 DELTA 1 DEB
1 42659U 75052MU  25261.13492096  .00007932  00000-0  71762-3 0  9992
2 42659  98.1848  11.7542 0002041 138.2181 344.7472 14.95707471636952
Epoch: 2025-09-18T03:14Z
TLE epoch observation values (Epoch: 2025-09-18T03:14:17.17Z)
Latitude
56.2546°
Longitude
158.24585°
Altitude
588.206 km
Speed
7.572 km/s
True Right ascension
13h 36m 28s
True Declination
56° 05' 30"
Sunlit
Object was in daylight at epoch
Visualization orbit readout
Latitude
Unknown
Longitude
Unknown
Altitude
Unknown
Speed
Unknown
Apparent Right ascension
Unknown
Apparent Declination
Unknown
Sunlit
N/A
Visualization observer readout
Local Sidereal Time
12:02:57
Azimuth
Unknown
Elevation
Unknown
Doppler factor
Unknown
Orbital elements
Apogee altitude
578.63 km
Perigee altitude
575.791 km
Semi-major axis
6,955.348 km
Eccentricity
0.0002
Inclination
98.1848°
RAAN
11.7542°
Arg. of periapsis
138.2181°
True anomaly
344.74105°
Mean anomaly
344.7472°
Eccentric anomaly
344.74412°
Mean motion
3.74167 °/min
Orbital period
96.21 mins
BSTAR
0.00071762
Loading maneuver chart data...
Computing Atmospheric mass density...
Loading historical data...
Loading historical data...
Loading historical data...
Loading historical data...
Loading historical data...
Loading historical data...
Loading historical data...

Documentation

Showing up to 5 results
|